Temperature
17 17 18 18 15 13 14 15 17 18 20 23 23 23 21 21 21 21 20 20 19 19 18 17 18 17 17 17 17 17 16 16 16 15 15 15 15 15 15 14 14 14 14 14 13 13 14 14 14
16 17 17 17 13 13 14 15 17 18 21 23 23 23 21 21 21 20 20 19 19 19 18 18 18 18 18 17 17 17 17 16 16 16 16 15 15 15 15 14 14 14 13 13 13 13 13 14 14
16 16 17 13 12 13 15 16 18 20 22 23 23 23 22 21 21 21 21 20 19 19 19 18 18 18 18 18 18 18 17 17 16 16 16 16 16 15 15 15 14 14 13 13 13 13 13 14 14
15 16 15 12 13 14 15 17 17 19 22 23 23 22 21 21 22 22 21 20 19 19 19 18 18 18 18 18 18 18 18 17 17 17 16 16 16 16 16 15 14 14 13 13 13 13 14 14 14
15 15 12 12 13 14 15 17 18 18 20 23 23 21 21 21 21 22 21 20 20 19 18 18 18 18 18 18 19 18 18 18 17 17 17 16 16 16 16 15 15 14 14 14 14 14 14 14 14
14 12 11 12 13 15 15 18 18 18 20 22 22 20 20 21 21 21 20 20 20 19 18 17 17 18 18 18 19 19 18 18 18 17 17 16 16 16 16 15 15 14 14 14 14 14 14 14 14
13 10 11 12 14 14 16 19 18 18 19 22 23 19 19 19 20 20 19 19 19 19 18 17 17 17 18 18 18 19 19 18 18 17 17 16 16 16 16 15 15 14 14 14 14 14 14 14 14
14 11 12 12 13 14 17 19 20 20 20 23 23 19 19 19 19 18 18 18 18 18 18 18 17 17 17 18 18 18 18 18 18 17 17 16 16 16 16 15 15 15 14 14 14 14 14 14 13
13 10 11 12 14 15 18 18 20 21 21 22 22 22 22 20 18 18 18 17 17 17 17 17 17 17 17 17 18 18 18 18 18 17 17 16 16 16 15 15 15 15 14 14 14 14 14 13 13
12 10 11 14 15 16 17 17 18 19 20 20 21 21 21 20 19 18 18 18 17 17 17 17 17 17 17 17 17 17 18 18 17 17 17 16 16 15 15 15 15 14 14 14 14 14 13 13 13
11 11 13 15 16 16 17 17 18 18 18 19 19 20 20 19 19 19 19 19 19 18 18 17 17 17 17 17 17 17 17 17 17 17 16 16 16 15 15 15 14 14 14 14 14 13 13 13 13
12 12 14 15 16 16 16 16 16 17 18 18 18 19 19 19 19 19 19 19 19 19 18 18 17 17 17 17 17 17 17 17 17 16 16 16 15 15 15 14 14 14 14 14 13 13 13 13 13
11 12 14 15 15 15 16 15 16 16 18 18 18 18 18 19 19 19 19 19 19 19 18 18 17 17 17 16 16 16 17 17 16 16 16 15 15 15 14 14 14 14 13 13 13 13 13 13 13
12 13 13 14 14 15 15 15 15 16 18 18 18 18 18 18 19 19 18 18 18 18 18 18 18 17 17 17 16 16 16 16 16 16 15 15 15 15 14 14 13 13 13 13 13 13 13 13 12
13 12 12 13 14 14 15 13 13 16 17 17 18 18 18 18 19 19 19 18 18 18 18 18 18 18 17 17 16 16 16 16 15 15 15 15 14 14 14 13 13 13 13 13 13 12 12 12 12
12 11 11 12 13 14 13 12 13 16 16 16 17 18 18 18 19 19 19 19 19 18 18 18 18 17 17 17 16 16 16 15 15 15 15 14 14 14 13 13 13 13 13 13 12 12 12 12 12
10 9 9 11 12 12 12 11 12 15 15 15 16 16 17 18 18 19 19 19 19 19 19 18 18 17 17 17 17 16 16 15 15 15 14 14 14 13 13 13 13 13 12 12 12 12 12 12 12
8 9 10 10 11 11 11 11 12 14 14 14 15 16 16 17 18 18 18 19 19 19 19 18 18 18 18 17 17 16 16 15 15 15 14 14 14 13 13 13 13 13 12 12 12 12 12 12 12
9 9 9 10 11 11 11 10 11 12 12 13 14 15 16 17 17 18 18 18 18 18 18 18 18 18 18 17 16 16 16 15 15 15 14 14 14 13 13 13 13 12 12 12 12 12 12 12 12
9 9 9 10 11 11 10 10 10 11 11 13 14 14 15 16 17 17 17 17 18 18 18 18 18 18 18 17 17 17 17 16 16 15 15 14 14 13 13 13 13 12 12 12 12 12 12 12 12
9 9 9 10 9 9 9 9 9 10 12 13 14 14 15 15 16 16 17 17 17 17 17 18 18 18 18 18 17 17 16 16 15 15 15 14 14 13 13 13 13 13 12 12 12 12 12 11 11
9 10 10 10 8 7 8 7 8 9 10 11 12 13 14 15 15 16 16 16 17 17 17 17 17 17 17 17 17 17 16 16 16 16 15 15 14 14 13 13 13 12 12 12 12 12 11 11 11
9 10 9 9 7 6 7 7 8 8 10 12 11 13 15 15 15 15 16 16 16 16 17 17 17 17 17 17 17 17 17 17 16 16 15 15 14 14 13 13 12 12 12 12 11 11 11 11 11
9 8 8 6 5 5 6 6 7 8 11 12 12 13 14 15 15 15 15 15 16 16 16 16 16 16 16 16 16 16 16 16 16 16 15 15 14 14 13 12 12 12 11 11 11 11 10 10 10
8 6 6 6 6 5 7 6 7 9 10 11 11 13 14 14 15 15 15 15 15 15 15 16 16 16 16 16 16 16 16 16 16 16 15 15 14 14 13 12 11 11 11 11 10 10 10 9 9
7 6 5 6 5 6 7 6 8 10 11 12 13 13 13 14 14 14 14 14 14 14 14 15 15 15 15 15 15 15 15 15 15 15 15 15 14 14 13 12 11 11 10 10 9 9 9 8 8
7 6 7 6 5 5 6 7 8 11 11 11 11 12 13 13 13 13 13 13 13 13 13 14 14 14 14 14 14 14 15 15 15 15 15 14 14 13 12 11 10 10 9 9 9 8 8 8 7
8 7 5 4 5 5 6 6 8 11 10 10 10 11 12 12 12 12 12 12 12 12 12 12 13 13 13 14 14 14 14 14 14 14 14 13 13 12 11 10 10 9 8 8 8 7 7 7 6
7 7 6 4 4 4 5 7 9 10 10 9 9 11 11 11 11 10 10 10 11 11 11 12 12 12 12 13 13 13 13 13 13 13 13 12 11 11 10 9 9 8 7 7 6 6 6 6 5
7 6 5 4 4 4 4 7 9 9 9 9 10 11 11 10 10 9 9 9 9 10 10 10 11 11 11 12 12 12 12 12 12 12 11 11 10 9 8 8 7 7 6 6 6 5 5 4 4
Wind_Speed
8 6 3 4 5 3 5 7 5 6 6 4 3 7 8 5 3 4 4 14 17 16 17 20 21 21 20 20 20 20 20 19 19 18 16 15 14 12 11 10 10 11 11 12 14 15 14 14 12
4 3 5 5 5 3 7 7 7 9 8 5 2 6 6 3 3 7 7 14 19 17 18 19 21 21 21 20 20 20 20 19 18 17 16 15 13 13 12 11 12 12 13 14 14 14 13 12 11
2 2 4 5 6 8 8 7 5 7 7 5 1 5 6 7 7 8 10 18 16 14 17 19 22 21 21 20 20 20 19 19 18 17 16 15 14 13 12 12 12 12 12 13 13 13 12 11 9
2 4 4 4 9 10 9 6 4 10 8 3 3 5 3 2 7 10 18 18 17 12 16 20 22 21 21 20 20 19 19 19 18 17 16 15 14 13 13 12 11 11 11 12 11 11 10 9 7
3 4 3 5 10 8 8 8 6 9 7 4 4 5 2 5 8 18 20 19 18 13 15 19 21 21 20 20 20 19 19 19 18 17 16 15 14 14 13 12 11 11 11 11 10 10 9 7 6
3 4 5 8 11 8 9 7 5 9 9 5 5 6 1 3 12 16 16 17 18 17 15 17 20 20 20 20 20 19 19 19 18 17 16 16 15 14 13 12 11 11 10 10 9 9 7 6 4
5 5 7 8 8 9 11 7 6 9 10 8 7 7 3 5 10 13 13 13 15 15 13 13 17 18 19 19 19 19 19 19 18 17 17 16 15 14 13 12 11 10 10 9 8 8 6 5 3
6 5 6 7 7 8 6 4 6 11 12 6 7 10 8 9 9 12 12 11 12 13 13 11 14 15 15 16 18 18 19 18 18 18 18 17 16 15 13 12 11 10 9 8 8 7 5 4 3
5 4 7 8 8 7 4 4 6 5 6 3 4 8 10 12 13 15 12 10 11 13 12 11 10 12 14 15 16 17 17 18 18 18 19 17 15 14 13 12 11 10 9 8 7 6 4 2 2
5 6 8 6 5 3 3 3 6 5 2 1 3 4 9 13 15 17 17 17 16 16 14 12 12 11 13 14 14 14 14 15 15 16 17 15 14 13 12 13 12 11 9 8 6 5 3 2 4
7 7 6 6 5 3 3 4 4 2 2 1 3 7 10 11 13 16 18 18 18 17 15 14 13 12 12 9 11 11 11 12 14 16 16 15 13 12 11 11 11 10 8 6 4 4 3 4 5
5 6 6 5 6 3 2 2 3 2 4 2 3 2 6 10 13 15 17 18 16 17 18 16 15 13 12 11 10 10 9 10 10 14 16 13 8 7 8 8 9 9 7 5 4 4 5 5 6
7 5 5 5 6 5 5 5 4 7 9 4 1 1 5 8 9 9 11 13 14 17 18 18 17 16 13 10 9 10 9 11 13 14 16 15 8 5 7 7 9 8 8 6 5 5 5 6 7
5 6 7 7 6 5 6 7 5 9 8 7 6 5 6 8 8 7 7 9 12 15 17 17 18 18 16 14 12 9 11 13 14 14 15 17 13 9 7 6 6 7 8 8 7 6 6 5 5
3 2 4 5 5 5 3 9 8 10 8 10 12 10 9 10 9 9 10 10 12 13 15 17 19 18 18 16 14 11 12 13 12 13 17 18 16 14 10 6 5 8 10 10 8 7 6 4 4
4 3 3 5 5 6 6 13 8 9 8 11 12 12 11 12 11 11 11 10 11 11 13 16 17 18 18 17 15 10 12 12 11 14 16 18 18 17 12 7 6 10 12 9 5 5 4 4 4
2 3 5 6 6 7 9 10 10 9 9 11 11 12 12 12 13 12 11 11 10 12 13 15 16 18 19 17 14 11 10 11 11 13 14 17 18 18 13 8 8 12 9 5 6 4 3 3 3
6 5 4 6 5 5 9 10 11 8 8 11 12 11 12 13 15 12 11 11 11 10 12 14 16 17 17 13 10 9 9 9 9 10 12 16 16 17 14 9 10 11 7 6 5 5 4 3 2
5 3 4 5 4 2 6 10 14 11 10 13 14 14 13 14 13 10 10 11 10 9 11 13 15 15 14 12 12 11 11 10 9 8 12 15 16 17 13 9 9 8 8 8 8 5 5 3 2
2 2 4 4 4 4 5 10 12 13 12 15 17 16 15 14 12 11 10 9 9 10 10 12 14 15 16 15 14 11 10 7 7 7 9 14 15 16 14 12 11 9 8 9 7 5 4 3 2
5 5 4 3 6 5 6 9 9 9 8 12 14 15 15 15 13 11 10 10 8 9 10 11 12 14 15 14 8 6 5 4 3 5 7 8 13 15 14 13 11 10 9 9 8 7 7 4 2
4 2 3 1 4 5 4 6 9 7 9 8 9 9 11 10 10 9 9 9 9 10 9 10 11 12 13 13 13 15 12 10 9 8 6 7 9 12 14 14 12 11 8 9 8 6 5 6 4
4 5 5 4 4 4 2 3 10 7 6 6 5 4 4 4 5 6 7 8 8 7 7 7 8 10 11 13 16 18 13 9 6 7 9 8 7 8 11 13 11 11 9 9 8 7 6 4 5
7 6 6 5 4 4 5 6 8 5 5 4 5 3 2 2 2 3 4 5 6 5 5 5 6 9 10 13 15 17 15 13 13 12 11 9 7 7 9 11 10 10 9 9 9 7 8 5 6
6 6 3 2 1 6 4 5 10 10 8 5 3 2 3 3 3 4 5 5 6 7 6 6 6 8 10 12 15 17 17 19 20 17 15 13 9 7 10 11 10 10 9 9 8 8 8 7 7
6 7 6 5 4 5 2 7 9 9 6 4 1 1 4 5 5 5 5 5 6 6 6 6 7 9 9 11 13 14 15 14 13 14 14 14 11 9 10 11 11 11 11 10 9 8 7 6 6
6 5 5 3 1 4 6 7 9 4 2 3 4 6 7 7 7 7 7 7 7 7 7 8 9 10 10 11 11 12 14 13 13 13 12 10 10 11 12 12 12 11 10 10 9 7 7 7 5
5 6 5 4 3 4 6 6 5 4 3 5 7 8 9 9 9 9 8 8 8 8 8 8 9 11 10 9 10 11 13 13 14 14 14 13 14 14 14 14 13 12 11 10 9 7 7 6 4
5 4 4 4 4 4 4 7 5 2 1 4 7 8 9 9 9 8 8 9 9 9 7 7 7 7 7 8 9 12 12 13 14 13 14 14 14 15 15 15 14 13 11 9 8 7 7 6 4
6 6 6 4 4 4 3 8 6 3 3 5 9 11 10 9 8 7 8 8 9 9 8 6 5 5 6 8 11 12 13 14 14 14 14 15 15 14 14 14 13 12 11 9 8 7 6 5 3
Wind_Direction
324 352 61 56 59 55 245 246 240 279 291 258 191 131 119 122 179 183 122 141 138 145 151 150 147 144 141 139 138 137 136 135 133 131 129 128 126 125 121 113 108 110 112 118 119 118 115 112 108
345 19 65 70 114 200 252 240 249 252 242 254 182 114 104 104 126 120 128 146 144 146 148 150 148 146 144 143 143 142 141 139 137 135 132 130 129 128 124 118 115 111 108 110 112 112 114 112 108
334 60 104 110 161 197 231 230 232 299 267 238 96 84 122 154 152 150 150 145 141 143 146 152 149 148 147 146 147 146 145 143 141 138 135 132 131 130 127 122 119 115 111 113 114 113 114 113 109
72 72 75 138 215 221 223 237 321 324 301 264 102 70 98 169 169 149 142 143 140 137 144 153 151 150 149 148 148 148 147 146 143 140 138 136 135 134 130 127 126 123 119 120 119 118 116 114 110
73 103 143 211 233 244 248 262 291 286 274 253 116 103 38 355 125 137 145 146 143 140 146 156 153 153 152 152 152 151 150 148 146 145 142 140 138 137 137 136 135 131 127 126 125 123 120 117 109
87 98 154 215 236 252 261 255 261 262 262 253 137 118 92 99 128 144 148 148 147 147 151 158 156 155 155 156 155 155 154 153 151 150 147 144 143 143 144 145 142 138 135 132 129 128 126 120 108
144 146 191 205 232 251 255 254 236 246 251 235 156 121 146 162 149 144 145 145 147 149 152 156 158 158 159 159 159 159 158 158 158 156 152 149 149 150 151 152 150 145 142 141 138 136 132 128 109
165 155 200 205 212 240 250 247 235 225 233 231 142 140 173 194 155 133 134 141 148 153 157 156 158 159 160 163 163 163 162 162 162 159 154 154 156 158 159 160 158 154 153 151 148 145 141 133 99
138 148 204 203 201 236 270 292 287 245 216 206 161 171 180 156 137 130 135 145 157 163 164 162 159 160 161 165 169 167 166 167 165 161 159 161 163 165 167 169 168 164 164 163 160 155 152 139 64
159 191 213 215 196 225 312 315 315 318 212 133 63 95 128 144 147 148 157 166 172 174 175 171 168 166 165 171 170 170 171 171 168 166 166 167 169 171 174 177 176 175 174 173 169 160 150 127 74
182 199 215 258 276 286 293 314 332 331 234 69 145 155 151 161 163 165 170 176 179 178 179 180 177 173 172 172 169 174 174 174 175 175 176 174 174 178 178 178 181 181 179 175 162 136 122 116 102
213 219 207 243 273 277 245 281 315 258 232 320 313 222 177 179 184 182 180 182 179 179 185 183 182 179 179 176 177 180 179 182 185 187 184 178 179 181 181 181 182 181 178 169 154 132 121 110 105
233 255 254 250 264 253 236 227 243 260 265 288 326 269 216 206 210 209 196 188 181 184 187 186 185 183 182 179 182 185 188 190 194 195 194 188 183 182 183 187 183 183 178 166 150 135 118 105 96
215 230 267 274 263 249 241 246 222 251 266 299 298 264 249 231 222 225 214 199 192 192 190 187 188 187 184 185 187 187 192 194 197 201 199 194 190 185 182 179 176 178 174 163 148 135 117 102 96
170 173 289 267 234 224 231 264 228 239 266 281 282 271 254 249 238 227 221 209 201 199 194 191 191 189 188 189 190 190 192 194 198 203 202 195 191 184 180 173 172 172 163 145 126 116 105 92 84
124 133 246 270 227 206 193 256 255 247 250 261 268 271 263 253 245 238 233 223 211 202 198 197 196 192 192 192 192 192 192 193 197 198 199 194 189 182 174 169 169 160 149 138 127 121 98 84 83
146 181 221 275 245 211 202 246 258 249 235 251 261 265 264 260 253 245 240 232 224 208 201 200 199 194 195 194 192 191 188 192 193 191 192 191 186 178 169 164 157 150 140 134 133 113 115 105 96
185 191 221 242 289 213 215 241 261 267 245 250 258 262 261 259 255 248 245 241 233 220 207 203 202 198 196 193 188 186 187 191 188 188 186 182 180 173 163 156 153 147 138 134 128 118 93 99 109
152 164 240 257 312 312 244 251 261 265 263 259 259 258 257 259 259 255 247 245 240 230 217 207 204 201 193 189 189 189 194 193 190 189 182 178 173 169 161 156 153 151 150 149 138 121 108 83 80
214 249 262 286 344 342 292 277 268 257 249 247 251 253 254 257 266 260 251 247 240 234 225 216 208 203 197 197 195 193 189 187 185 181 180 178 172 169 165 159 161 155 145 144 147 136 123 98 67
223 217 232 282 344 1 342 299 274 270 258 253 249 249 249 246 251 255 252 249 244 237 228 223 213 208 203 196 180 151 119 97 139 177 180 179 171 167 164 161 157 156 154 159 157 147 138 138 86
209 210 180 79 34 325 19 305 289 288 302 286 274 260 253 251 248 248 248 250 246 241 233 226 218 210 203 192 179 174 180 183 188 180 168 160 163 162 160 158 155 155 152 153 154 147 140 135 138
146 97 91 82 76 341 285 237 283 303 289 300 305 288 268 262 254 257 257 253 255 250 241 234 225 213 203 195 189 189 189 178 153 147 149 151 152 154 155 154 151 151 149 147 140 137 130 129 142
125 73 59 56 65 289 221 191 277 264 252 312 341 4 15 1 336 305 297 289 282 277 261 245 229 221 208 199 193 194 184 161 154 159 162 157 151 149 152 150 149 146 145 143 138 133 128 124 124
109 97 62 352 279 255 206 197 254 261 263 257 271 24 31 26 12 345 332 318 304 295 280 259 235 227 215 204 198 195 184 173 173 170 169 163 162 162 161 153 149 144 139 134 129 127 123 121 124
142 137 160 197 231 281 233 228 255 269 267 250 203 76 28 16 360 337 317 304 294 287 279 265 249 237 220 209 203 193 180 178 176 171 169 170 168 157 153 148 145 140 137 134 129 124 121 118 118
136 163 155 130 313 282 275 282 296 285 356 32 27 24 8 349 337 324 316 309 297 287 274 257 250 243 227 211 196 183 177 173 168 162 155 152 147 146 146 143 140 138 134 133 128 125 123 121 119
141 142 120 142 186 265 290 272 249 278 3 15 8 357 342 336 330 325 320 312 303 290 282 272 252 238 225 204 187 178 171 165 159 155 154 151 149 148 147 144 140 135 131 130 124 125 126 123 127
151 156 145 144 167 184 281 273 225 214 347 350 345 341 333 327 323 321 317 315 313 308 296 282 264 240 212 190 174 160 156 151 149 151 150 149 146 148 148 145 140 136 132 129 127 127 126 125 126
165 173 151 163 219 198 223 272 267 259 277 317 325 321 316 314 313 316 317 319 319 317 312 303 279 227 193 168 152 148 145 145 145 146 146 145 143 143 141 138 135 132 128 127 126 126 121 124 131
Height
1520 1522 1523 1524 1528 1536 1535 1523 1513 1508 1504 1500 1498 1497 1498 1502 1505 1509 1505 1505 1508 1510 1512 1515 1517 1519 1521 1522 1524 1525 1526 1527 1528 1529 1530 1530 1530 1530 1531 1531 1532 1533 1534 1534 1535 1536 1537 1538 1538
1517 1520 1522 1523 1532 1541 1533 1517 1510 1505 1501 1499 1497 1496 1498 1500 1501 1501 1502 1505 1508 1510 1512 1514 1516 1519 1520 1522 1523 1524 1525 1527 1528 1528 1529 1529 1530 1530 1530 1531 1532 1533 1534 1535 1536 1537 1538 1539 1539
1515 1517 1520 1523 1531 1533 1523 1509 1505 1500 1498 1497 1495 1495 1497 1499 1500 1500 1501 1505 1508 1510 1512 1514 1516 1518 1520 1521 1523 1524 1525 1526 1527 1528 1529 1529 1530 1530 1530 1531 1532 1533 1535 1536 1537 1538 1539 1539 1539
1513 1516 1518 1524 1524 1516 1509 1503 1502 1501 1498 1495 1493 1495 1498 1500 1500 1500 1502 1505 1507 1510 1512 1514 1516 1518 1520 1521 1522 1524 1525 1526 1527 1528 1529 1529 1530 1530 1531 1531 1533 1534 1535 1537 1538 1539 1539 1540 1540
1512 1513 1519 1523 1518 1509 1503 1501 1503 1502 1499 1494 1492 1495 1497 1499 1500 1501 1501 1504 1506 1509 1511 1514 1516 1518 1519 1521 1522 1523 1525 1526 1527 1528 1529 1530 1530 1531 1532 1532 1533 1535 1536 1538 1539 1539 1540 1540 1541
1510 1511 1521 1521 1513 1505 1500 1499 1502 1501 1497 1493 1492 1494 1497 1498 1499 1501 1502 1504 1507 1509 1511 1513 1516 1517 1519 1521 1522 1523 1524 1526 1527 1528 1529 1530 1531 1532 1533 1533 1534 1536 1537 1538 1539 1540 1541 1541 1541
1508 1511 1515 1513 1509 1505 1497 1497 1499 1497 1495 1492 1490 1493 1496 1498 1500 1501 1503 1505 1507 1509 1511 1513 1515 1517 1519 1520 1522 1523 1524 1525 1527 1528 1529 1530 1532 1533 1533 1534 1535 1536 1538 1539 1540 1540 1541 1541 1541
1503 1507 1508 1508 1506 1501 1494 1494 1494 1493 1491 1489 1488 1490 1494 1496 1499 1501 1504 1505 1507 1509 1511 1513 1514 1516 1518 1520 1521 1523 1524 1525 1526 1528 1529 1530 1532 1533 1534 1535 1536 1537 1538 1539 1540 1540 1541 1541 1541
1501 1507 1507 1502 1501 1496 1491 1491 1490 1488 1487 1486 1486 1486 1488 1493 1497 1500 1503 1505 1506 1508 1510 1512 1513 1515 1517 1519 1520 1522 1523 1525 1526 1527 1529 1530 1531 1533 1534 1535 1536 1537 1538 1539 1540 1540 1540 1541 1541
1497 1503 1499 1493 1492 1491 1490 1490 1489 1486 1485 1485 1484 1485 1487 1491 1494 1497 1500 1502 1504 1506 1508 1510 1512 1514 1516 1517 1519 1520 1522 1523 1525 1526 1528 1529 1531 1532 1533 1535 1536 1537 1538 1538 1539 1539 1540 1540 1540
1493 1495 1492 1489 1489 1490 1490 1489 1488 1487 1486 1485 1485 1485 1487 1490 1492 1494 1497 1499 1501 1504 1507 1508 1510 1512 1514 1515 1517 1519 1520 1522 1524 1525 1527 1528 1529 1531 1532 1533 1535 1536 1537 1538 1538 1539 1539 1539 1539
1490 1488 1488 1488 1488 1488 1489 1488 1487 1486 1485 1486 1486 1487 1487 1488 1490 1491 1493 1496 1499 1501 1504 1506 1508 1510 1511 1513 1515 1517 1518 1520 1521 1523 1525 1526 1527 1529 1531 1532 1534 1535 1536 1537 1537 1538 1538 1538 1538
1488 1486 1486 1487 1487 1487 1487 1486 1486 1483 1483 1484 1485 1487 1487 1488 1489 1491 1492 1494 1496 1498 1500 1503 1505 1507 1509 1510 1512 1514 1516 1518 1520 1521 1523 1524 1526 1528 1529 1531 1532 1534 1535 1536 1536 1537 1537 1537 1537
1484 1484 1484 1484 1485 1485 1485 1483 1483 1480 1480 1480 1481 1483 1485 1486 1487 1489 1490 1492 1493 1495 1497 1499 1501 1503 1505 1507 1509 1511 1513 1515 1517 1519 1520 1522 1524 1526 1527 1529 1531 1532 1534 1535 1535 1536 1536 1536 1536
1482 1484 1484 1482 1482 1482 1483 1482 1478 1477 1478 1477 1477 1478 1480 1482 1483 1485 1487 1489 1491 1492 1494 1496 1498 1500 1501 1503 1506 1508 1510 1512 1514 1516 1518 1520 1521 1523 1525 1527 1529 1530 1532 1533 1534 1534 1535 1535 1535
1481 1485 1488 1482 1479 1479 1485 1481 1474 1474 1474 1473 1473 1473 1474 1475 1477 1479 1482 1485 1487 1489 1491 1492 1494 1496 1497 1499 1502 1504 1507 1509 1511 1513 1515 1517 1519 1521 1523 1525 1527 1529 1530 1531 1532 1533 1533 1533 1533
1484 1489 1489 1484 1476 1476 1479 1477 1470 1469 1470 1469 1469 1468 1468 1468 1470 1473 1476 1479 1481 1484 1486 1488 1489 1491 1493 1496 1498 1501 1503 1505 1507 1510 1512 1514 1516 1518 1520 1522 1524 1526 1527 1529 1530 1531 1531 1532 1532
1487 1488 1486 1484 1476 1475 1476 1474 1468 1466 1466 1465 1464 1463 1463 1462 1463 1466 1470 1473 1475 1478 1480 1482 1484 1486 1489 1491 1494 1497 1499 1501 1503 1505 1507 1510 1512 1514 1517 1519 1521 1523 1525 1526 1527 1529 1529 1530 1530
1480 1483 1484 1480 1475 1474 1474 1472 1466 1463 1463 1461 1459 1458 1457 1456 1458 1461 1463 1466 1469 1471 1473 1475 1477 1480 1483 1485 1487 1490 1493 1495 1498 1501 1503 1506 1508 1511 1513 1515 1517 1519 1521 1523 1525 1526 1527 1527 1527
1479 1482 1482 1479 1475 1474 1474 1471 1463 1458 1456 1454 1452 1451 1451 1451 1452 1455 1457 1460 1462 1464 1467 1469 1470 1473 1475 1478 1480 1483 1486 1489 1493 1496 1499 1501 1503 1506 1508 1510 1513 1515 1518 1519 1521 1522 1523 1524 1524
1478 1481 1481 1480 1478 1476 1476 1471 1461 1452 1449 1447 1445 1444 1444 1445 1446 1449 1451 1454 1456 1458 1460 1462 1464 1466 1468 1471 1474 1477 1481 1483 1486 1489 1492 1495 1498 1500 1503 1506 1509 1511 1514 1515 1517 1519 1520 1520 1521
1477 1475 1476 1479 1484 1487 1485 1485 1464 1454 1448 1443 1440 1438 1438 1440 1442 1444 1446 1448 1450 1452 1454 1456 1457 1459 1461 1464 1466 1468 1471 1474 1477 1481 1485 1489 1492 1495 1498 1501 1504 1506 1509 1511 1513 1515 1516 1516 1516
1475 1475 1477 1481 1486 1491 1488 1490 1467 1455 1449 1441 1438 1436 1436 1437 1439 1440 1442 1444 1445 1447 1448 1449 1451 1452 1454 1456 1458 1461 1464 1467 1471 1475 1479 1482 1486 1489 1492 1496 1499 1501 1504 1507 1509 1510 1511 1512 1512
1473 1478 1481 1487 1493 1498 1488 1492 1473 1457 1446 1442 1439 1436 1436 1437 1438 1439 1439 1440 1441 1442 1443 1444 1445 1446 1448 1449 1451 1454 1457 1460 1464 1468 1472 1476 1480 1483 1487 1490 1493 1496 1499 1502 1504 1506 1507 1508 1508
1474 1485 1495 1495 1497 1494 1482 1485 1469 1449 1444 1443 1441 1438 1438 1437 1437 1437 1437 1437 1437 1437 1438 1438 1438 1439 1441 1442 1444 1446 1450 1453 1457 1461 1465 1469 1473 1476 1480 1484 1488 1491 1494 1497 1499 1501 1502 1503 1504
1475 1482 1495 1497 1496 1488 1477 1477 1459 1444 1440 1440 1439 1438 1437 1437 1436 1436 1435 1434 1433 1433 1432 1432 1432 1432 1433 1435 1436 1439 1442 1446 1451 1455 1459 1463 1467 1471 1474 1479 1483 1487 1490 1493 1495 1497 1498 1499 1500
1476 1481 1483 1491 1493 1494 1481 1470 1454 1441 1440 1438 1438 1437 1436 1436 1435 1433 1432 1430 1429 1428 1427 1426 1425 1425 1426 1427 1429 1432 1435 1439 1444 1449 1453 1457 1461 1465 1469 1474 1478 1482 1485 1488 1491 1493 1494 1496 1496
1472 1476 1486 1495 1497 1493 1481 1473 1458 1445 1442 1440 1439 1437 1436 1434 1432 1430 1428 1426 1424 1422 1420 1419 1418 1417 1418 1419 1421 1424 1428 1433 1438 1442 1446 1451 1455 1460 1464 1469 1473 1477 1481 1484 1487 1489 1491 1492 1493
1474 1477 1481 1491 1495 1496 1489 1467 1447 1443 1442 1441 1439 1437 1435 1432 1430 1427 1425 1422 1419 1416 1413 1411 1409 1409 1410 1411 1414 1417 1422 1427 1432 1437 1441 1446 1450 1455 1460 1464 1469 1473 1477 1481 1484 1486 1487 1488 1489
1471 1474 1480 1491 1492 1493 1494 1469 1441 1442 1440 1439 1437 1435 1432 1430 1427 1424 1421 1417 1414 1410 1407 1405 1402 1401 1402 1405 1408 1412 1417 1421 1426 1432 1437 1442 1446 1451 1455 1460 1465 1470 1474 1478 1481 1483 1484 1485 1486